Location: Newark
(33.6333°S, 78.8500°W)
Time: 11:35:32
(UTC+00:00)

Tiros 1 despin weight - Pass Details

Date: 22 September 2019
Orbit: 593 x 643 km, 48.2° (Epoch: 19 October)

Event Time Altitude Azimuth Distance (km) Brightness Sun altitude
Rises 10:37:51 0° 229° (SW) 2,954 ? -6.5°
Reaches altitude 10° 10:40:14 10° 224° (SW) 2,046 ? -6.0°
Maximum altitude 10:44:52 54° 146° (SE) 789 ? -5.1°
Drops below altitude 10° 10:49:29 10° 68° (ENE) 2,039 ? -4.1°
Sets 10:51:52 0° 63° (ENE) 2,943 ? -3.6°
